Lake Apopka Weather Center

Moon Phase Calendar



Lake Apopka Water Level
Online Cameras

 


      

Current Conditions in Montverde
8/5/2021 6:26:53 AM

75°F
Feels Like 76
Clouds
Humidity
91%
Pressure
30.06"
Wind
2 mph (SSE)
Dew Point
72°F
UV Index
0/10 (Low)
Visibility
6 mi

Hourly Forecast

Date & Time Thu, Aug 5
6:00 AM
Thu, Aug 5
7:00 AM
Thu, Aug 5
8:00 AM
Thu, Aug 5
9:00 AM
Thu, Aug 5
10:00 AM
Thu, Aug 5
11:00 AM
Thu, Aug 5
12:00 PM
Thu, Aug 5
1:00 PM
Thu, Aug 5
2:00 PM
Thu, Aug 5
3:00 PM
Thu, Aug 5
4:00 PM
Thu, Aug 5
5:00 PM
Thu, Aug 5
6:00 PM
Thu, Aug 5
7:00 PM
Thu, Aug 5
8:00 PM
Thu, Aug 5
9:00 PM
Thu, Aug 5
10:00 PM
Thu, Aug 5
11:00 PM
Fri, Aug 6
12:00 AM
Fri, Aug 6
1:00 AM
Fri, Aug 6
2:00 AM
Fri, Aug 6
3:00 AM
Fri, Aug 6
4:00 AM
Fri, Aug 6
5:00 AM
Fri, Aug 6
6:00 AM
Fri, Aug 6
7:00 AM
Fri, Aug 6
8:00 AM
Fri, Aug 6
9:00 AM
Fri, Aug 6
10:00 AM
Fri, Aug 6
11:00 AM
Fri, Aug 6
12:00 PM
Fri, Aug 6
1:00 PM
Fri, Aug 6
2:00 PM
Fri, Aug 6
3:00 PM
Fri, Aug 6
4:00 PM
Fri, Aug 6
5:00 PM
Fri, Aug 6
6:00 PM
Fri, Aug 6
7:00 PM
Fri, Aug 6
8:00 PM
Fri, Aug 6
9:00 PM
Fri, Aug 6
10:00 PM
Fri, Aug 6
11:00 PM
Sat, Aug 7
12:00 AM
Sat, Aug 7
1:00 AM
Sat, Aug 7
2:00 AM
Sat, Aug 7
3:00 AM
Sat, Aug 7
4:00 AM
Sat, Aug 7
5:00 AM
Condition
Clouds

Clouds

Clouds

Clouds

Rain

Rain

Rain

Rain

Rain

Rain

Rain

Clouds

Clouds

Clouds

Clouds

Clouds

Clouds

Clouds

Clouds

Clouds

Clouds

Clouds

Clouds

Clouds

Clouds

Clouds

Clouds

Clouds

Clouds

Clouds

Clouds

Clouds

Clouds

Clouds

Clouds

Clouds

Clouds

Clouds

Clouds

Rain

Clouds

Clouds

Clouds

Clouds

Clouds

Clouds

Clouds

Clouds
Temperature 75°F75°F75°F77°F81°F85°F87°F87°F85°F82°F79°F78°F78°F77°F76°F75°F74°F74°F74°F73°F73°F73°F73°F72°F72°F72°F74°F79°F83°F86°F89°F91°F92°F93°F94°F93°F92°F88°F85°F83°F82°F81°F80°F79°F79°F78°F78°F77°F
Feels Like 76°F76°F77°F79°F85°F90°F92°F92°F91°F88°F79°F79°F79°F79°F77°F76°F75°F75°F75°F74°F74°F74°F74°F73°F73°F73°F75°F79°F85°F89°F92°F94°F96°F97°F97°F96°F95°F92°F89°F87°F85°F84°F83°F79°F79°F79°F79°F78°F
Cloudiness 97%97%97%94%81%73%71%73%77%100%100%100%100%100%100%100%99%96%92%87%78%51%45%38%37%36%40%74%82%84%83%81%80%80%79%79%74%70%71%93%93%92%82%75%71%50%34%24%
Visibility 6 mi6 mi6 mi6 mi6 mi6 mi6 mi6 mi6 mi6 mi6 mi6 mi6 mi6 mi6 mi6 mi6 mi6 mi6 mi6 mi6 mi6 mi6 mi6 mi6 mi6 mi6 mi6 mi6 mi6 mi6 mi6 mi6 mi6 mi6 mi6 mi6 mi6 mi6 mi6 mi6 mi6 mi6 mi6 mi6 mi6 mi6 mi6 mi
Precipitation 76%81%81%53%64%64%69%77%77%81%90%80%83%77%73%3%1%0%0%0%0%0%0%0%0%0%0%0%0%0%0%0%1%1%1%4%4%4%16%35%42%33%31%29%29%0%0%0%
Humidity 91%91%90%85%75%63%59%60%66%73%80%80%81%81%82%82%83%84%84%84%85%85%85%85%85%85%80%68%58%53%49%46%43%41%40%40%43%51%60%62%64%66%68%71%74%76%78%80%
Dew Point 72°F72°F72°F72°F72°F71°F70°F71°F71°F72°F72°F71°F72°F71°F70°F69°F69°F69°F68°F68°F68°F68°F67°F67°F67°F67°F68°F67°F66°F67°F67°F67°F66°F66°F66°F66°F66°F68°F69°F69°F68°F68°F69°F69°F70°F70°F70°F70°F
Pressure 30.06"30.06"30.06"30.06"30.06"30.06"30.06"30.06"30.06"30.06"30.06"30.06"30.06"30.06"30.09"30.09"30.09"30.12"30.12"30.09"30.09"30.06"30.06"30.06"30.06"30.09"30.09"30.12"30.12"30.12"30.12"30.09"30.06"30.06"30.03"30.03"30.03"30.03"30.06"30.06"30.09"30.09"30.09"30.09"30.06"30.06"30.03"30.03"
Wind Speed 6.2 mph6.2 mph6.5 mph8.6 mph10.7 mph12.1 mph12.4 mph12.7 mph12.6 mph13.2 mph12.7 mph11.4 mph11.2 mph9.8 mph7.7 mph6.2 mph4.5 mph3.2 mph3.4 mph4.6 mph3.9 mph3.7 mph5.2 mph5.1 mph4.9 mph5.1 mph4.5 mph5.8 mph5.8 mph6 mph6.4 mph6.3 mph5.6 mph5.3 mph5.7 mph6.3 mph7.1 mph7.3 mph5.3 mph3.6 mph4.2 mph4.1 mph3.4 mph3 mph2.6 mph3.3 mph3.3 mph3.2 mph
Wind
Direction
176°
S
174°
S
174°
S
189°
S
196°
SSW
201°
SSW
213°
SSW
231°
SW
250°
WSW
260°
W
254°
WSW
249°
WSW
246°
WSW
240°
WSW
237°
WSW
243°
WSW
241°
WSW
202°
SSW
168°
SSE
155°
SSE
158°
SSE
158°
SSE
145°
SE
149°
SSE
158°
SSE
163°
SSE
163°
SSE
163°
SSE
166°
SSE
172°
S
180°
S
193°
SSW
211°
SSW
230°
SW
249°
WSW
266°
W
286°
WNW
307°
NW
325°
NW
332°
NNW
330°
NNW
344°
NNW

N
29°
NNE
22°
NNE

N
17°
NNE
30°
NNE

Daily Forecast

Date High Low Precip. Humidity
Today
Aug 5

Rain
87 °F
74 °F
90%
60%
Friday
Aug 6

Rain
94 °F
72 °F
33%
46%
Saturday
Aug 7

Rain
94 °F
77 °F
87%
46%
Sunday
Aug 8

Rain
94 °F
77 °F
80%
47%
Monday
Aug 9

Rain
95 °F
78 °F
57%
42%
Tuesday
Aug 10

Clear
95 °F
77 °F
39%
41%
Wednesday
Aug 11

Rain
96 °F
77 °F
66%
42%
Thursday
Aug 12

Rain
95 °F
78 °F
50%
45%
Friday
Aug 13

Rain
97 °F
78 °F
68%
39%
Saturday
Aug 14

Rain
95 °F
75 °F
92%
46%
Sunday
Aug 15

Rain
94 °F
75 °F
61%
42%
Monday
Aug 16

Clear
95 °F
77 °F
40%
38%
Tuesday
Aug 17

Clear
95 °F
77 °F
13%
38%
Wednesday
Aug 18

Rain
94 °F
77 °F
39%
38%
Thursday
Aug 19

Rain
97 °F
77 °F
91%
37%
Friday
Aug 20

Rain
96 °F
77 °F
56%
39%

Temperature 8-14 Day Outlook



Precipitation 8-14 Day Outlook




Quick Links
Lake Apopka News
Lake Apopka Photos
Lake Apopka Videos




About Us
Contact Us
Site Map
Search Site
Advertise With Us
   
Apopka.USLakes.info
THE LAKE APOPKA WEBSITE

Copyright 2021, Lakes Online
Privacy    |    Legal